Change the Weather History Date:

Monday, April 15, 2013

  Actual Average Record
Temperature  
Mean Temperature 87 °F 77 °F  
Max Temperature 91 °F 83 °F 91 °F (2013)
Min Temperature 82 °F 72 °F 62 °F (1998)
Degree Days  
Heating Degree Days 0 0  
Month to date heating degree days 0 0  
Since 1 July heating degree days 36 81  
Cooling Degree Days 22 12  
Month to date cooling degree days 243 174  
Year to date cooling degree days 1031 839  
Growing Degree Days 36 (Base 50)    
Moisture  
Dew Point 73 °F    
Average Humidity 65    
Maximum Humidity 74    
Minimum Humidity 56    
Precipitation  
Precipitation 0.00 in 0.07 in 0.21 in (2007)
Month to date precipitation 2.11 1.05  
Year to date precipitation 5.88 7.26  
Snow  
Snow 0.00 in - - ()
Month to date snowfall 0.0  
Since 1 July snowfall 0.0  
Snow Depth 0.00 in    
Sea Level Pressure  
Sea Level Pressure 29.98 in    
Wind  
Wind Speed 5 mph (SSE)    
Max Wind Speed 10 mph    
Max Gust Speed 16 mph    
Visibility 9 miles    
Events      
T = Trace of Precipitation, MM = Missing Value Source: NWS Daily Summary

Daily Weather History Graph

Daily Weather History Graph

Search for Another Location

Airport or City:

Trip Planner

Search our weather history database for the weather conditions in past years. The results will help you decide how hot, cold, wet, or windy it might be!

Date:

Astronomy

Apr. 15, 2013 Rise Set
Actual Time 7:01 AM EDT 7:46 PM EDT
Civil Twilight 6:38 AM EDT 8:09 PM EDT
Nautical Twilight 6:11 AM EDT 8:37 PM EDT
Astronomical Twilight 5:43 AM EDT 9:05 PM EDT
Moon 10:44 AM EDT (4/15) No Moon Set
Length of Visible Light 13h 31m
Length of Day
12h 44m
Waxing Crescent, 24% of the Moon is Illuminated
Apr 15
Waxing Crescent
Apr 18
First Quarter
Apr 25
Full
May 2
Last Quarter
May 9
New

Hourly Weather History & Observations

Time (EDT) Temp. Heat Index Dew Point Humidity Pressure Visibility Wind Dir Wind Speed Gust Speed Precip Events Conditions
12:53 AM 82.9 °F 88.8 °F 73.0 °F 72% 29.95 in 10.0 mi SSE 6.9 mph - N/A   Partly Cloudy
1:53 AM 82.9 °F 88.8 °F 73.0 °F 72% 29.94 in 10.0 mi SSE 6.9 mph - N/A   Scattered Clouds
2:53 AM 82.9 °F 88.8 °F 73.0 °F 72% 29.94 in 10.0 mi SSE 5.8 mph - N/A   Mostly Cloudy
3:53 AM 82.9 °F 89.4 °F 73.9 °F 74% 29.94 in 10.0 mi SSE 5.8 mph - N/A   Overcast
4:53 AM 82.0 °F 87.9 °F 73.9 °F 76% 29.93 in 10.0 mi SSE 5.8 mph - N/A   Clear
5:53 AM 82.0 °F 87.9 °F 73.9 °F 76% 29.94 in 10.0 mi SSE 5.8 mph - N/A   Clear
6:53 AM 82.0 °F 87.9 °F 73.9 °F 76% 29.95 in 10.0 mi SSE 3.5 mph - N/A   Clear
7:53 AM 82.9 °F 89.4 °F 73.9 °F 74% 29.97 in 10.0 mi SSE 3.5 mph - N/A   Clear
8:53 AM 84.9 °F 92.1 °F 73.9 °F 69% 29.99 in 10.0 mi SSE 3.5 mph - N/A   Partly Cloudy
9:53 AM 87.1 °F 95.4 °F 73.9 °F 65% 30.00 in 10.0 mi SSE 3.5 mph - N/A   Clear
10:53 AM 87.1 °F 93.6 °F 72.0 °F 61% 30.01 in 10.0 mi South 4.6 mph - N/A   Mostly Cloudy
11:53 AM 89.1 °F 98.0 °F 73.9 °F 61% 30.01 in 10.0 mi South 4.6 mph - N/A   Scattered Clouds
12:53 PM 90.0 °F 99.0 °F 73.9 °F 59% 30.01 in 10.0 mi Variable 4.6 mph - N/A   Scattered Clouds
1:53 PM 91.0 °F 99.3 °F 73.0 °F 55% 30.00 in 10.0 mi Variable 4.6 mph - N/A   Clear
2:53 PM 90.0 °F 97.9 °F 73.0 °F 57% 29.98 in 10.0 mi South 6.9 mph - N/A   Clear
3:53 PM 90.0 °F 99.0 °F 73.9 °F 59% 29.96 in 6.0 mi South 6.9 mph - N/A   Haze
4:53 PM 88.0 °F 95.6 °F 73.0 °F 61% 29.96 in 7.0 mi Variable 5.8 mph - N/A   Partly Cloudy
5:53 PM 87.1 °F 93.6 °F 72.0 °F 61% 29.97 in 7.0 mi Calm Calm - N/A   Clear
6:53 PM 86.0 °F 92.2 °F 72.0 °F 63% 29.98 in 8.0 mi Calm Calm - N/A   Clear
7:53 PM 84.9 °F 90.7 °F 72.0 °F 65% 29.99 in 7.0 mi NE 5.8 mph - N/A   Overcast
8:53 PM 84.9 °F 90.7 °F 72.0 °F 65% 30.01 in 10.0 mi NE 6.9 mph - N/A   Partly Cloudy
9:53 PM 84.9 °F 91.4 °F 73.0 °F 67% 30.03 in 10.0 mi NE 8.1 mph - N/A   Mostly Cloudy
10:53 PM 84.9 °F 91.4 °F 73.0 °F 67% 30.04 in 10.0 mi NE 6.9 mph - N/A   Partly Cloudy
11:53 PM 84.0 °F 91.9 °F 75.0 °F 74% 30.04 in 10.0 mi Calm Calm - N/A   Partly Cloudy